Location: Unspecified
(0.0000°N, 0.0000°E)
Time: 17:50:01
(UTC+00:00)

ISS - Pass Details

Date: 14 July 2016
Orbit: 403 x 408 km, 51.6° (Epoch: 21 September)

Event Time Altitude Azimuth Distance (km) Brightness Sun altitude
Rises 09:39:21 0° 304° (WNW) 2,318 -0.1 48.3°
Reaches altitude 10° 09:41:41 10° 288° (WNW) 1,470 -1.1 48.7°
Maximum altitude 09:44:22 23° 234° (SW) 937 -2.1 49.3°
Drops below altitude 10° 09:47:06 10° 179° (S) 1,502 -1.1 49.9°
Sets 09:49:30 0° 164° (SSE) 2,383 -0.1 50.3°
